Regional Weather Roundup
Issued by NWS

Home | Current Version | Previous Version | Text Only | Print | Product List | Glossary On
Versions: 1 2 3 4 5 6 7 8 9 10 11 12 13 14 15 16 17 18 19 20 21 22 23 24 25 26 27 28 29 30 31 32 33 34 35 36 37 38 39 40 41 42 43 44 45 46 47 48 49 50
000
ASUS43 KMPX 251410
RWRMN
WEATHER ROUNDUP FOR MINNESOTA
NATIONAL WEATHER SERVICE TWIN CITIES/CHANHASSEN MN
900 AM CDT FRI JUL 25 2014


NOTE: "FAIR" INDICATES FEW OR NO CLOUDS BELOW 12,000 FEET WITH NO
SIGNIFICANT WEATHER AND/OR OBSTRUCTIONS TO VISIBILITY. N/A MEANS
CURRENT SKY AND/OR WEATHER CONDITIONS ARE NOT AVAILABLE.

MNZ060>063-068>070-251500-
   Twin Cities Metro

CITY           SKY/WX    TMP DP  RH WIND       PRES   REMARKS
TWIN CITIES    CLOUDY    67  64  90 SE9       29.85F
ST PAUL        CLOUDY    66  64  93 SE6       29.86F
CRYSTAL        CLOUDY    69  63  81 SE7       29.84F
BLAINE         PTSUNNY   66  66 100 S6        29.85F
LAKEVILLE      CLOUDY    64  63  94 SE6       29.86R
EDEN PRAIRIE   CLOUDY    68  64  87 S10       29.84S
SOUTH ST PAUL  CLOUDY    67  65  90 S7        29.85F
LAKE ELMO      PTSUNNY   64  63  94 S10       29.87S
$$
MNZ001>005-007-008-013>017-022>024-027-028-251500-
   Northwest Minnesota

CITY           SKY/WX    TMP DP  RH WIND       PRES   REMARKS
BEMIDJI        MOSUNNY   67  61  80 S13       29.75F
HALLOCK        SUNNY     70  64  83 W3        29.74S
ROSEAU         PTSUNNY   68  63  83 S6        29.77R
WARROAD        PTSUNNY   66  63  88 CALM      29.77R
THIEF RVR FALL PTSUNNY   66  63  88 S6        29.78R
CROOKSTON      PTSUNNY   68  63  83 SW3       29.78R
FOSSTON        MOSUNNY   68  61  77 S12       29.77R
DETROIT LAKES  CLOUDY    68  63  83 S15       29.77F
MOORHEAD       SUNNY     70  66  88 S15       29.74S
PARK RAPIDS    MOSUNNY   68  62  81 S15       29.79R
$$
MNZ006-009>011-018-025>026-251500-
   North Central Minnesota

CITY           SKY/WX    TMP DP  RH WIND       PRES   REMARKS
BAUDETTE       PTSUNNY   68  62  81 VRB3      29.78R
FLAG ISLAND    CLOUDY    68  63  83 S3        29.76R
INTL FALLS     MOSUNNY   66  61  84 VRB5      29.79R
WASKISH        PTSUNNY   66  64  94 CALM      29.78R
BIG FORK       CLOUDY    66  61  82 S3        29.81R
LONGVILLE      CLOUDY    66  63  88 S8        29.78S
GRAND RAPIDS   PTSUNNY   64  59  82 S12       29.78F
CRANE LAKE     SUNNY     66  63  88 CALM      29.82R
ORR            MOSUNNY   66  59  77 S6        29.78R
COOK           MOSUNNY   66  61  82 S5        29.81S
$$
MNZ012-019>021-037-251500-
   Northeast Minnesota

CITY           SKY/WX    TMP DP  RH WIND       PRES   REMARKS
DULUTH         CLOUDY    66  59  78 S6        29.83R
ELY            PTSUNNY   68  61  77 S5        29.82S
HIBBING        PTSUNNY   66  60  81 S5        29.80F
EVELETH        PTSUNNY   64  59  82 S7        29.82F
DULUTH HARBOR  CLOUDY    59  55  88 NE7       29.83R
TWO HARBORS    CLOUDY    66  57  72 CALM      29.81F
SILVER BAY     PTSUNNY   64  63  94 CALM      29.81F
GRAND MARAIS     N/A     55  51  86 CALM      29.83F
G MARAIS ARPRT PTSUNNY   63  55  77 CALM      29.87S
$$
MNZ029>031-032-039>041-046>048-054>057-064-251500-
   West Central Minnesota

CITY           SKY/WX    TMP DP  RH WIND       PRES   REMARKS
FERGUS FALLS   CLOUDY    68  63  83 SE13      29.76F
WHEATON        MOSUNNY   64  63  94 SE14      29.76F
MORRIS         SUNNY     70  66  88 SE9       29.77S
ALEXANDRIA     CLOUDY    67  64  90 SE12      29.83R
ELBOW LAKE     FAIR      68  64  88 SE12      29.77S
WADENA         CLOUDY    64  61  88 SE9       29.81R
GLENWOOD       MOSUNNY   70  64  83 SE10      29.83R
APPLETON       SUNNY     72  64  78 SE6       29.77R
BENSON         MOSUNNY   70  64  83 S9        29.79R
ORTONVILLE     SUNNY     70  64  83 SE8       29.76R
MADISON        SUNNY     73  66  78 S9        29.77R
WILLMAR        FAIR      68  66  94 SE9       29.83R
$$
MNZ033>034-036-042>043-049>051-058-059-251500-
   Central Minnesota

CITY           SKY/WX    TMP DP  RH WIND       PRES   REMARKS
ST CLOUD       CLOUDY    67  63  87 SE6       29.84S
SAUK CENTRE    CLOUDY    65  64  94 E7        29.83S
PAYNESVILLE    CLOUDY    64  63  97 E7        29.84S
AITKIN         CLOUDY    68  63  83 SW6       29.80R
PINE RIVER     CLOUDY    64  63  94 S10       29.82F
BRAINERD       CLOUDY    64  62  93 SW16      29.80S
STAPLES        CLOUDY    66  61  82 S10       29.82S
LONG PRAIRIE   CLOUDY    63  63 100 SE7       29.84S
LITTLE FALLS   CLOUDY    63  61  94 SE8       29.84R
LITCHFIELD     CLOUDY    70  66  88 SE7       29.85R
BUFFALO        CLOUDY    67  62  86 SE5       29.86R
MAPLE LAKE     CLOUDY    67  65  94 CALM      29.86R
$$
MNZ037-044-045-052-053-251500-
   East Central Minnesota

CITY           SKY/WX    TMP DP  RH WIND       PRES   REMARKS
PRINCETON      CLOUDY    68  64  88 S8        29.84R
MORA           CLOUDY    64  63  94 SW9       29.82F
CAMBRIDGE      CLOUDY    68  61  77 S8        29.81F
RUSH CITY      CLOUDY    65  63  93 S8        29.81F
MOOSE LAKE     CLOUDY    64  61  88 SW5       29.80S
HINCKLEY       CLOUDY    64  63  94 S12       29.80F
CLOQUET        CLOUDY    64  61  88 CALM      29.83R
MCGREGOR       CLOUDY    66  63  88 S8        29.82R
$$
MNZ071>073-080-081-089-090-097-098-251500-
   Southwest Minnesota

CITY           SKY/WX    TMP DP  RH WIND       PRES   REMARKS
MONTEVIDEO     PTSUNNY   72  66  83 S3        29.79R
GRANITE FALLS  MOSUNNY   70  64  81 S15       29.80S
CANBY          MOSUNNY   71  64  78 SE7       29.78R
MARSHALL       MOSUNNY   72  63  73 S12       29.77S
REDWOOD FALLS  MOSUNNY   71  63  75 S18       29.79R
OLIVIA         PTSUNNY   70  64  83 S8        29.81R
PIPESTONE      SUNNY     70  63  78 S18G26    29.78S
WINDOM         PTSUNNY   70  61  73 S21G28    29.78S
WORTHINGTON    SUNNY     68  61  77 S20G35    29.78F
JACKSON        MOSUNNY   64  63  94 S23G30    29.80S
TRACY          PTSUNNY   71  63  75 S3        29.80R
SLAYTON        MOSUNNY   69  62  78 S18G26    29.79R
$$
MNZ065>067-074>077-082>085-091>093-251500-
   South Central Minnesota

CITY           SKY/WX    TMP DP  RH WIND       PRES   REMARKS
MANKATO        CLOUDY    68  63  83 S15       29.82R
NEW ULM        PTSUNNY   70  68  94 S8        29.81R
ST JAMES       PTSUNNY   72  63  73 S15G22    29.82R
FAIRMONT       PTSUNNY   66  59  77 S18       29.80S
GLENCOE        CLOUDY    68  63  84 E9        29.84R
FARIBAULT      CLOUDY    70  61  73 SE10      29.86R
OWATONNA       CLOUDY    64  63  94 SE12G17   29.85S
WASECA         CLOUDY    63  59  88 SE10G17   29.85S
ALBERT LEA     CLOUDY    66  64  94 S12       29.83F
$$
MNZ078>079-086>088-094>096-251500-
   Southeast Minnesota

CITY           SKY/WX    TMP DP  RH WIND       PRES   REMARKS
ROCHESTER      CLOUDY    64  60  87 S13       29.88F
RED WING       CLOUDY    66  63  88 SW6       29.87R
STANTON        CLOUDY    66  62  85 S6        29.86R
DODGE CENTER   CLOUDY    64  63  94 S13G21    29.88R
WINONA         CLOUDY    66  61  82 S3        29.89R
AUSTIN         CLOUDY    63  63 100 S9        29.87R
PRESTON        CLOUDY    62  62 100 S13G25    29.87F
$$
ABBREVIATIONS USED IN REMARKS
   TC - TEMPERATURES IN CELSIUS
  WCI - WIND CHILL INDEX
   HX - HEAT INDEX
  VSB - VISIBILITY
$$


USA.gov is the U.S. government's official web portal to all federal, state and local government web resources and services.